EZY308 EGAE-EGPH

Flight info

Callsign EZY308
Flight time 0h 39m
Altitude 23000
Route MAC N562 TRN DCT TLA
Aircraft A319/M-SDE3FGHIRWY/LB1

Departure

Time 2026-04-23 21:29
Airport City of Derry Airport (EGAE)

Arrival

Time 2026-04-23 22:08
Airport Edinburgh Airport (EGPH)
Time Latitude Longitude Altitude Speed Heading
2026-04-23 21:01 55.04006 -7.15812 25 ft 0 kts 167°
2026-04-23 21:19 55.04023 -7.15815 27 ft 2 kts 184°
2026-04-23 21:19 55.04040 -7.15810 26 ft 2 kts 201°
2026-04-23 21:19 55.04054 -7.15795 28 ft 2 kts 218°
2026-04-23 21:20 55.04062 -7.15782 28 ft 2 kts 230°
2026-04-23 21:20 55.04071 -7.15758 27 ft 2 kts 242°
2026-04-23 21:20 55.04078 -7.15731 24 ft 2 kts 250°
2026-04-23 21:20 55.04082 -7.15706 26 ft 2 kts 257°
2026-04-23 21:21 55.04083 -7.15697 25 ft 0 kts 259°
2026-04-23 21:21 55.04082 -7.15710 26 ft 5 kts 259°
2026-04-23 21:22 55.04082 -7.15853 26 ft 14 kts 315°
2026-04-23 21:22 55.04198 -7.15918 24 ft 22 kts 346°
2026-04-23 21:22 55.04261 -7.15944 24 ft 3 kts 347°
2026-04-23 21:22 55.04291 -7.16024 24 ft 14 kts 268°
2026-04-23 21:23 55.04252 -7.16259 25 ft 26 kts 252°
2026-04-23 21:23 55.04196 -7.16603 27 ft 33 kts 253°
2026-04-23 21:23 55.04120 -7.17023 30 ft 39 kts 252°
2026-04-23 21:23 55.04034 -7.17456 30 ft 30 kts 227°
2026-04-23 21:24 55.03989 -7.17596 29 ft 4 kts 252°
2026-04-23 21:24 55.03989 -7.17597 29 ft 0 kts 252°
2026-04-23 21:27 55.03989 -7.17600 29 ft 1 kts 252°
2026-04-23 21:27 55.03992 -7.17637 29 ft 4 kts 305°
2026-04-23 21:27 55.04022 -7.17592 28 ft 8 kts 80°
2026-04-23 21:28 55.04036 -7.17509 29 ft 0 kts 75°
2026-04-23 21:28 55.04040 -7.17488 30 ft 18 kts 75°
2026-04-23 21:28 55.04178 -7.16695 29 ft 114 kts 74°
2026-04-23 21:28 55.04482 -7.14958 101 ft 177 kts 75°
2026-04-23 21:29 55.04825 -7.12656 532 ft 213 kts 78°
2026-04-23 21:29 55.05182 -7.09976 1227 ft 233 kts 78°
2026-04-23 21:29 55.05789 -7.07348 2379 ft 240 kts 68°
2026-04-23 21:29 55.06581 -7.04653 3135 ft 259 kts 67°
2026-04-23 21:30 55.07398 -7.01801 4209 ft 263 kts 67°
2026-04-23 21:30 55.08203 -6.98908 5358 ft 267 kts 67°
2026-04-23 21:30 55.09006 -6.95955 6429 ft 273 kts 68°
2026-04-23 21:30 55.09822 -6.92921 7454 ft 279 kts 68°
2026-04-23 21:31 55.10650 -6.89825 8487 ft 284 kts 68°
2026-04-23 21:31 55.11318 -6.86572 9504 ft 288 kts 79°
2026-04-23 21:31 55.11774 -6.83126 10511 ft 293 kts 80°
2026-04-23 21:31 55.12229 -6.79549 11131 ft 313 kts 80°
2026-04-23 21:32 55.12718 -6.75705 11540 ft 336 kts 79°
2026-04-23 21:32 55.13237 -6.71684 12218 ft 347 kts 79°
2026-04-23 21:32 55.13783 -6.67496 13174 ft 351 kts 79°
2026-04-23 21:32 55.14328 -6.63306 14104 ft 356 kts 79°
2026-04-23 21:33 55.14880 -6.59057 14938 ft 360 kts 79°
2026-04-23 21:33 55.15205 -6.54703 15758 ft 362 kts 92°
2026-04-23 21:33 55.15134 -6.50283 16559 ft 366 kts 94°
2026-04-23 21:33 55.15035 -6.45813 17379 ft 370 kts 94°
2026-04-23 21:34 55.14932 -6.41297 18169 ft 374 kts 94°
2026-04-23 21:34 55.14830 -6.36720 18919 ft 379 kts 94°
2026-04-23 21:34 55.14731 -6.32098 19607 ft 383 kts 94°
2026-04-23 21:34 55.14631 -6.27422 20293 ft 387 kts 94°
2026-04-23 21:35 55.14530 -6.22710 20988 ft 390 kts 93°
2026-04-23 21:35 55.14427 -6.18041 21640 ft 395 kts 93°
2026-04-23 21:35 55.14318 -6.13119 22314 ft 399 kts 93°
2026-04-23 21:35 55.14208 -6.08259 22972 ft 403 kts 93°
2026-04-23 21:36 55.13979 -5.98401 23411 ft 407 kts 93°
2026-04-23 21:36 55.13861 -5.93462 23409 ft 406 kts 93°
2026-04-23 21:36 55.13741 -5.88536 23410 ft 406 kts 93°
2026-04-23 21:37 55.13619 -5.83598 23298 ft 406 kts 93°
2026-04-23 21:37 55.13497 -5.78733 23201 ft 397 kts 93°
2026-04-23 21:37 55.13376 -5.73986 23076 ft 385 kts 93°
2026-04-23 21:37 55.13258 -5.69396 22942 ft 371 kts 94°
2026-04-23 21:38 55.13142 -5.64971 22808 ft 358 kts 94°
2026-04-23 21:38 55.13028 -5.60712 22681 ft 345 kts 94°
2026-04-23 21:38 55.12917 -5.56591 22571 ft 333 kts 94°
2026-04-23 21:38 55.12809 -5.52632 22460 ft 321 kts 94°
2026-04-23 21:39 55.12703 -5.48808 22356 ft 309 kts 94°
2026-04-23 21:39 55.12600 -5.45127 22251 ft 298 kts 94°
2026-04-23 21:39 55.12499 -5.41553 22025 ft 292 kts 94°
2026-04-23 21:39 55.12397 -5.38022 21620 ft 292 kts 94°
2026-04-23 21:40 55.12293 -5.34454 21156 ft 295 kts 94°
2026-04-23 21:40 55.12189 -5.30884 20805 ft 293 kts 94°
2026-04-23 21:40 55.12085 -5.27330 20462 ft 292 kts 94°
2026-04-23 21:40 55.11980 -5.23800 20121 ft 290 kts 94°
2026-04-23 21:41 55.11875 -5.20297 19789 ft 289 kts 94°
2026-04-23 21:41 55.11769 -5.16795 19457 ft 288 kts 95°
2026-04-23 21:41 55.11663 -5.13312 19133 ft 286 kts 95°
2026-04-23 21:41 55.11556 -5.09848 18848 ft 283 kts 95°
2026-04-23 21:42 55.11451 -5.06454 18617 ft 278 kts 95°
2026-04-23 21:42 55.11346 -5.03097 18280 ft 276 kts 95°
2026-04-23 21:42 55.11238 -4.99735 17896 ft 277 kts 95°
2026-04-23 21:42 55.11305 -4.96410 17770 ft 274 kts 81°
2026-04-23 21:43 55.11844 -4.93186 17767 ft 280 kts 67°
2026-04-23 21:43 55.12639 -4.90079 17772 ft 281 kts 67°
2026-04-23 21:43 55.13424 -4.86955 17758 ft 280 kts 68°
2026-04-23 21:43 55.14202 -4.83827 17564 ft 282 kts 68°
2026-04-23 21:44 55.14978 -4.80693 17275 ft 280 kts 68°
2026-04-23 21:44 55.15746 -4.77593 16976 ft 277 kts 68°
2026-04-23 21:44 55.16509 -4.74505 16697 ft 276 kts 68°
2026-04-23 21:44 55.17269 -4.71430 16425 ft 276 kts 68°
2026-04-23 21:45 55.18028 -4.68358 16151 ft 274 kts 67°
2026-04-23 21:45 55.18780 -4.65305 15879 ft 274 kts 67°
2026-04-23 21:45 55.19533 -4.62247 15609 ft 273 kts 67°
2026-04-23 21:45 55.20284 -4.59196 15342 ft 272 kts 67°
2026-04-23 21:46 55.21030 -4.56157 15076 ft 272 kts 67°
2026-04-23 21:46 55.21775 -4.53121 14813 ft 271 kts 67°
2026-04-23 21:46 55.22517 -4.50093 14553 ft 271 kts 67°
2026-04-23 21:46 55.23257 -4.47067 14294 ft 270 kts 67°
2026-04-23 21:47 55.23992 -4.44060 14009 ft 268 kts 67°
2026-04-23 21:47 55.24723 -4.41068 13717 ft 267 kts 67°
2026-04-23 21:47 55.25451 -4.38082 13427 ft 266 kts 67°
2026-04-23 21:47 55.26173 -4.35119 13145 ft 263 kts 67°
2026-04-23 21:48 55.26891 -4.32170 12862 ft 263 kts 67°
2026-04-23 21:48 55.27605 -4.29230 12586 ft 261 kts 67°
2026-04-23 21:48 55.28316 -4.26302 12306 ft 260 kts 68°
2026-04-23 21:48 55.29021 -4.23395 12029 ft 259 kts 68°
2026-04-23 21:49 55.29720 -4.20503 11756 ft 257 kts 68°
2026-04-23 21:49 55.30416 -4.17626 11484 ft 256 kts 68°
2026-04-23 21:49 55.31107 -4.14762 11211 ft 254 kts 68°
2026-04-23 21:49 55.31796 -4.11903 10945 ft 254 kts 68°
2026-04-23 21:50 55.32481 -4.09057 10681 ft 252 kts 68°
2026-04-23 21:50 55.33160 -4.06230 10417 ft 251 kts 68°
2026-04-23 21:50 55.33836 -4.03411 10144 ft 250 kts 68°
2026-04-23 21:50 55.34511 -4.00595 9850 ft 249 kts 68°
2026-04-23 21:51 55.35352 -3.97925 9574 ft 263 kts 53°
2026-04-23 21:51 55.36550 -3.95177 9303 ft 293 kts 53°
2026-04-23 21:51 55.37790 -3.92339 8996 ft 292 kts 53°
2026-04-23 21:51 55.39017 -3.89524 8696 ft 288 kts 53°
2026-04-23 21:52 55.40227 -3.86735 8392 ft 287 kts 53°
2026-04-23 21:52 55.41433 -3.83948 8095 ft 285 kts 53°
2026-04-23 21:52 55.42631 -3.81174 7808 ft 283 kts 53°
2026-04-23 21:52 55.43819 -3.78421 7505 ft 283 kts 53°
2026-04-23 21:53 55.45004 -3.75671 7210 ft 280 kts 53°
2026-04-23 21:53 55.46176 -3.72949 6928 ft 278 kts 53°
2026-04-23 21:53 55.47346 -3.70230 6619 ft 278 kts 53°
2026-04-23 21:53 55.48512 -3.67516 6309 ft 276 kts 53°
2026-04-23 21:54 55.49669 -3.64820 5988 ft 275 kts 53°
2026-04-23 21:54 55.50802 -3.62178 5660 ft 273 kts 53°
2026-04-23 21:54 55.51946 -3.59506 5343 ft 273 kts 53°
2026-04-23 21:54 55.53086 -3.56841 5001 ft 271 kts 54°
2026-04-23 21:55 55.54218 -3.54190 4707 ft 268 kts 54°
2026-04-23 21:55 55.55362 -3.51594 4575 ft 270 kts 46°
2026-04-23 21:55 55.56939 -3.49852 4424 ft 268 kts 26°
2026-04-23 21:55 55.58569 -3.48242 4331 ft 268 kts 32°
2026-04-23 21:56 55.60135 -3.46466 4247 ft 267 kts 33°
2026-04-23 21:56 55.61714 -3.44652 4159 ft 267 kts 33°
2026-04-23 21:56 55.63280 -3.42891 4077 ft 266 kts 32°
2026-04-23 21:56 55.64851 -3.41160 3992 ft 266 kts 32°
2026-04-23 21:57 55.66424 -3.39449 3908 ft 265 kts 32°
2026-04-23 21:57 55.67996 -3.37749 3821 ft 264 kts 32°
2026-04-23 21:57 55.69563 -3.36055 3738 ft 264 kts 32°
2026-04-23 21:57 55.71129 -3.34362 3658 ft 263 kts 32°
2026-04-23 21:58 55.72691 -3.32670 3571 ft 263 kts 32°
2026-04-23 21:58 55.73719 -3.31556 3517 ft 262 kts 32°
2026-04-23 21:58 55.75800 -3.29298 3405 ft 262 kts 32°
2026-04-23 21:58 55.76826 -3.28183 3347 ft 261 kts 32°
2026-04-23 21:59 55.78374 -3.26501 3261 ft 261 kts 32°
2026-04-23 21:59 55.79905 -3.24835 3204 ft 254 kts 32°
2026-04-23 21:59 55.81383 -3.23227 3123 ft 243 kts 32°
2026-04-23 22:00 55.84342 -3.19999 2990 ft 248 kts 32°
2026-04-23 22:00 55.85818 -3.18388 2995 ft 249 kts 32°
2026-04-23 22:00 55.87274 -3.16798 2989 ft 249 kts 32°
2026-04-23 22:00 55.88765 -3.15168 2990 ft 249 kts 32°
2026-04-23 22:01 55.90243 -3.13550 2990 ft 248 kts 32°
2026-04-23 22:01 55.91713 -3.11940 2994 ft 249 kts 32°
2026-04-23 22:01 55.93190 -3.10320 2991 ft 249 kts 32°
2026-04-23 22:01 55.94658 -3.08710 2992 ft 248 kts 32°
2026-04-23 22:02 55.96136 -3.07085 2992 ft 249 kts 32°
2026-04-23 22:02 55.97591 -3.05485 2987 ft 249 kts 32°
2026-04-23 22:02 55.99083 -3.03844 2991 ft 249 kts 32°
2026-04-23 22:02 56.00555 -3.02223 2989 ft 247 kts 32°
2026-04-23 22:03 56.02010 -3.00755 2982 ft 233 kts 18°
2026-04-23 22:03 56.03576 -3.00810 2993 ft 232 kts 336°
2026-04-23 22:03 56.04761 -3.02690 2994 ft 231 kts 297°
2026-04-23 22:03 56.05132 -3.05434 2989 ft 230 kts 264°
2026-04-23 22:04 56.04734 -3.08192 2991 ft 230 kts 245°
2026-04-23 22:04 56.04002 -3.10688 2989 ft 220 kts 238°
2026-04-23 22:04 56.03226 -3.12955 2957 ft 208 kts 237°
2026-04-23 22:04 56.02498 -3.15121 2904 ft 200 kts 237°
2026-04-23 22:05 56.01781 -3.17237 2605 ft 198 kts 238°
2026-04-23 22:05 56.01072 -3.19333 2330 ft 195 kts 238°
2026-04-23 22:05 56.00377 -3.21389 2083 ft 189 kts 238°
2026-04-23 22:05 55.99720 -3.23328 1817 ft 177 kts 238°
2026-04-23 22:06 55.99107 -3.25139 1576 ft 164 kts 238°
2026-04-23 22:06 55.98545 -3.26797 1373 ft 148 kts 238°
2026-04-23 22:06 55.98040 -3.28289 1157 ft 133 kts 238°
2026-04-23 22:06 55.97558 -3.29708 976 ft 134 kts 238°
2026-04-23 22:07 55.97095 -3.31075 800 ft 133 kts 238°
2026-04-23 22:07 55.96618 -3.32480 600 ft 133 kts 238°
2026-04-23 22:07 55.96139 -3.33890 335 ft 128 kts 238°
2026-04-23 22:07 55.95674 -3.35257 181 ft 129 kts 238°
2026-04-23 22:08 55.95252 -3.36498 108 ft 72 kts 238°
2026-04-23 22:08 55.95100 -3.36939 115 ft 19 kts 240°
2026-04-23 22:08 55.95026 -3.37168 110 ft 24 kts 240°
2026-04-23 22:08 55.94939 -3.37430 111 ft 25 kts 238°
2026-04-23 22:09 55.94840 -3.37718 118 ft 33 kts 238°
2026-04-23 22:09 55.94699 -3.38059 119 ft 14 kts 175°
2026-04-23 22:09 55.94581 -3.37914 114 ft 5 kts 108°
2026-04-23 22:09 55.94614 -3.37831 115 ft 18 kts 60°
2026-04-23 22:10 55.94708 -3.37543 114 ft 35 kts 59°
2026-04-23 22:10 55.94846 -3.37141 108 ft 44 kts 59°
2026-04-23 22:10 55.94927 -3.36864 108 ft 16 kts 93°
2026-04-23 22:10 55.94817 -3.36784 106 ft 22 kts 155°
2026-04-23 22:11 55.94802 -3.36647 107 ft 5 kts 89°
2026-04-23 22:11 55.94802 -3.36624 108 ft 0 kts 89°